Regional Weather Roundup
Issued by NWS

Home | Current Version | Previous Version | Graphics & Text | Print | Product List | Glossary On
Versions: 1 2 3 4 5 6 7 8 9 10 11 12 13 14 15 16 17 18 19 20 21 22 23 24 25 26 27 28
000
ASUS45 KTFX 242210
RWRMT
MONTANA REGIONAL WEATHER ROUNDUP
NATIONAL WEATHER SERVICE GREAT FALLS MT
400 PM MDT MON JUL 24 2017

NOTE: "FAIR" INDICATES FEW OR NO CLOUDS BELOW 12000 FEET WITH NO
SIGNIFICANT WEATHER AND/OR OBSTRUCTIONS TO VISIBILITY.

MTZ001>007-043-242300-
WEST OF THE DIVIDE

CITY           SKY/WX    TMP DP  RH WIND       PRES   REMARKS
KALISPELL      SUNNY     90  24   9 W12G20    29.85S
MISSOULA       SUNNY     93  28  10 W15G24    29.88F
BUTTE          MOSUNNY   85  30  13 W14G30    30.02F
MULLAN PASS    SUNNY     74  34  23 VRB3      30.12S
ANACONDA         N/A     88  32  13 W15G22    29.97F
DEER LODGE       N/A     88  41  19 N7        29.97R
EUREKA           N/A     82  32  16 MISG      29.87F
HAMILTON         N/A     88  43  20 W13G20    29.91S
LIBBY            N/A     88  27  11 NW5       29.86F
$$

MTZ008-052>055-242300-
SOUTHWEST MONTANA

CITY           SKY/WX    TMP DP  RH WIND       PRES   REMARKS
BOZEMAN        PTSUNNY   89  45  21 NW8       29.93F
DILLON         PTSUNNY   80  51  36 W10       29.99F
W YELLOWSTONE  MOSUNNY   81  30  16 VRB5G12   30.13S
ENNIS          MOSUNNY   88  36  15 W21       30.05F
THREE FORKS      N/A     92  41  17 W9        29.92F
$$

MTZ009-010-012-014-046-048-049-054-242300-
EAST SLOPES AND CENTRAL MONTANA

CITY           SKY/WX    TMP DP  RH WIND       PRES   REMARKS
CUT BANK       SUNNY     77  36  22 MISG      29.92F
GREAT FALLS    SUNNY     85  45  24 NE7       29.88F
HELENA         MOSUNNY   95  38  13 W13G29    29.86F HX  90
CHOTEAU          N/A     81  41  24 CALM      29.92F
$$

MTZ011-013-016-021-045-047-050-051-242300-
NORTH CENTRAL MONTANA

CITY           SKY/WX    TMP DP  RH WIND       PRES   REMARKS
HAVRE          MOSUNNY   80  41  24 W6        29.88F
LEWISTOWN      PTSUNNY   84  42  22 N9        29.93F
N BAR RANCH      N/A     81  46  30 E15       29.99S
CHINOOK          N/A     79  39  24 SW7       29.87F
$$

MTZ017>020-022>027-061-062-242300-
NORTHEAST MONTANA

CITY           SKY/WX    TMP DP  RH WIND       PRES   REMARKS
GLASGOW        PTSUNNY   84  42  22 W16       29.85S
JORDAN           N/A     87  46  24 N10       29.87F
SIDNEY         MOSUNNY   92  55  28 N15G21    29.78R HX  90
WOLF POINT     PTSUNNY   92  44  19 NW15G22   29.81S
MALTA          SUNNY     82  45  26 VRB7      29.86F
PLENTYWOOD       N/A     84  43  23 NW13      29.82S
POPLAR           N/A     88  48  25 N13G21    29.81S
SCOBEY           N/A     82  42  24 NW9       29.85S
$$

MTZ028>42-056>058-242300-
SOUTHCENTRAL AND SOUTHEAST MONTANA

CITY           SKY/WX    TMP DP  RH WIND       PRES   REMARKS
BAKER          SUNNY     97  44  16 NW15G23   29.82R HX  93
BILLINGS       MOSUNNY   93  40  15 NE8       29.88F
LIVINGSTON     MOSUNNY   94  32  11 W18G28    29.91F
MILES CITY     SUNNY     94  46  19 N16G23    29.83F HX  90
BIG TIMBER     MOSUNNY   95  34  11 W15G22    29.94S HX  90
EKALAKA          N/A     96  44  16 NW7       29.85S HX  92
FORSYTH          N/A     90  46  22 N3        29.84F
LAUREL           N/A     93  43  17 NE2       29.89R
$$

REGIONAL REPORTS...DAKOTAS

CITY           SKY/WX    TMP DP  RH WIND       PRES   REMARKS
WILLISTON      MOSUNNY   92  56  29 N18       29.77R HX  90
MINOT          SUNNY     97  56  25 S15G25    29.72F HX  95
DICKINSON      SUNNY     96  55  25 S10       29.76F HX  94
BEACH            N/A     95  43  16 NW18G24   29.83R HX  91
CROSBY           N/A     84  52  32 N10G18    29.79S
TIOGA            N/A     86  55  35 N21       29.79R
WATFORD CITY     N/A     97  52  21 NW15      29.73R HX  94
BISMARCK       SUNNY     90  64  42 SE20G28   29.80F HX  91
GRAND FORKS    PTSUNNY   82  65  56 S16       29.87F
FARGO          CLOUDY    77  63  61 SE18G31   29.90F
BUFFALO SD       N/A     97  53  22 S8        29.75F HX  94
RAPID CITY     SUNNY     98  48  18 E12       29.82F HX  94
$$

REGIONAL REPORTS...WYOMING/IDAHO/WASHINGTON

CITY           SKY/WX    TMP DP  RH WIND       PRES   REMARKS
GILLETTE       MOSUNNY   97  35  11 SW8       29.90F HX  92
SHERIDAN       MOSUNNY   92  41  17 VRB5      29.90F
BUFFALO WY     MOSUNNY   93  38  14 N12G22    29.98F
CODY           SUNNY     92  38  15 VRB7      29.96F
YELLOWSTONE LA   N/A     79  31  17 VRB5G17   30.24F
IDAHO FALLS    MOSUNNY   92  30  11 VRB5      30.00F
BOISE          CLOUDY    94  46  19 N8        29.85F HX  90
SPOKANE        MOSUNNY   84  27  12 NW8       29.95F
$$

REGIONAL REPORTS...ALBERTA

CITY           SKY/WX    TMP DP  RH WIND       PRES   REMARKS
EDMONTON       LGT RAIN  54  52  94 W16G28    29.86R
CALGARY        MOSUNNY   70  39  32 N16G24    29.95R
LETHBRIDGE     MOSUNNY   75  39  27 E8        29.90F
MEDICINE HAT   MOSUNNY   75  36  23 W13G21    29.90S
WATERTON GATE    N/A     77  39  25 E6          N/A
MILK RIVER       N/A     75  39  27 N3          N/A
$$

REGIONAL REPORTS...SASKATCHEWAN

CITY           SKY/WX    TMP DP  RH WIND       PRES   REMARKS
SWIFT CURRENT  SUNNY     73  36  25 W24G31    29.86S
REGINA         MOSUNNY   77  45  31 NW23G30   29.81S
SASKATOON      MOSUNNY   72  45  37 W24G31    29.74S
VAL MARIE        N/A     81  37  21 W10G17      N/A
ROCKGLEN         N/A     77  41  27 W12G20      N/A
ASSINIBOIA       N/A     55  54  94 NW28G43     N/A
$$




USA.gov is the U.S. government's official web portal to all federal, state and local government web resources and services.